Location: Isola Pescaroli
(45.0500°N, 10.1667°E)
Time: 16:08:16
(UTC+00:00)

SL-4 R/B - Pass Details

Date: 03 March 2021
Orbit: 428 x 663 km, 51.6° (Epoch: 19 April)

Event Time Altitude Azimuth Distance (km) Brightness Sun altitude
Rises 19:51:02 0° 299° (WNW) 2,442 6.5 -28.8°
Reaches altitude 10° 19:53:12 10° 300° (WNW) 1,549 5.2 -29.2°
Enters shadow 19:54:13 18° 300° (WNW) 1,133 4.3 -29.4°
